Miscellaneous Local Product
Issued by NWS North Platte, NE

Home | Current Version | Previous Version | Text Only | Print | Product List | Glossary On
Versions: 1 2 3 4 5 6 7 8 9 10 11 12 13 14 15 16 17 18 19 20 21 22 23 24 25 26 27 28 29 30 31 32 33 34 35 36 37 38 39 40 41 42 43 44 45 46 47 48 49 50
000
AXUS43 KLBF 020810
MISLBF


WESTERN AND NORTH CENTRAL NEBRASKA HOURLY WEATHER ROUNDUP
NATIONAL WEATHER SERVICE NORTH PLATTE NE
300 AM CDT THU OCT 02 2014

***STATIONS NOT REPORTING VARIABLES SUCH AS SKY/WEATHER OR
PRESSURE ARE PROVIDED BY THE NEBRASKA DEPARTMENT OF
ROADS...RAWS...AND APRS NETWORKS...AND ARE NOT UNDER
NATIONAL WEATHER SERVICE QUALITY CONTROL***

...OBSERVATIONS IN AND NEAR THE EASTERN PANHANDLE OF NEBRASKA...

CITY           SKY/WX    TMP DP  RH WIND       PRES   REMARKS
PINE RIDGE     PTCLDY    44  44 100 CALM      30.01R
CHADRON        CLEAR     42  41  96 SW8       30.03R
ALLIANCE       CLOUDY    46  45  96 NW8       30.02R
SIDNEY         MOCLDY    44  42  93 NW9       30.04R
WHITECLAY        N/A     41  39  92 CALM        N/A
RUSHVILLE        N/A     42  41  95 NW10        N/A
CRESCENT LAKE    N/A     46  44  94 NW6         N/A
LISCO            N/A     47  44  88 SW6         N/A
BIG SPRINGS      N/A     50  47  90 NW3         N/A
$$

...OBSERVATIONS IN NORTH CENTRAL NEBRASKA...

CITY           SKY/WX    TMP DP  RH WIND       PRES   REMARKS
VALENTINE      LGT RAIN  50  47  89 NW3       29.97R
THEDFORD       DRIZZLE   51  49  96 N13       29.96F
AINSWORTH      RAIN      50  49  97 NW6       29.97S
O`NEILL        RAIN      53  52  97 NW16G22   29.95R
ORD            RAIN      53  50  89 N15G24    29.91S FOG
BROKEN BOW     LGT RAIN  53  50  89 N21G30    29.89F
SPRINGVIEW       N/A     51  49  93 CALM        N/A
ROSE             N/A     52  52 100 S9          N/A
NEWPORT          N/A     51  51  99 NW10        N/A
SARGENT          N/A     51  49  95 CALM        N/A
COMSTOCK         N/A     55  54  97 N12         N/A
CHAMBERS         N/A     52  51  95 N7          N/A
EWING            N/A     53  50  91 W3G12       N/A
$$

...OBSERVATIONS IN SOUTHWEST NEBRASKA AND FAR NORTHEAST COLORADO...

CITY           SKY/WX    TMP DP  RH WIND       PRES   REMARKS
WRAY           PTSUNNY   48  48  98 NW9       30.02R
HOLYOKE        FAIR      48  45  87 NW12      30.01R
IMPERIAL       LGT RAIN  50  47  89 N13       29.97S
OGALLALA       CLOUDY    51  47  89 N8        30.00R
NORTH PLATTE   LGT RAIN  51  48  89 NE12      29.95R
MCCOOK         LGT RAIN  53  49  86 N21G29    29.92R
LEXINGTON      CLOUDY    53  50  90 N12G18    29.90R
PAXTON           N/A     51  48  90 N3          N/A
SUTHERLAND       N/A     46  44  91 NW3         N/A
BRADY            N/A     51  48  90 CALM        N/A
GOTHENBURG       N/A     52  47  83 N12         N/A
CALLAWAY         N/A     51  49  95 N13         N/A
$$

...SOME WEATHER OBSERVATIONS FROM AROUND THE REGION...

CITY           SKY/WX    TMP DP  RH WIND       PRES   REMARKS
DENVER         CLOUDY    44  39  82 W6        30.10R
LARAMIE        PTCLDY    32  29  88 N7        30.11R WCI  26
CHEYENNE       MOCLDY    37  35  92 W5        30.09R WCI  33
SCOTTSBLUFF    MOCLDY    41  40  96 NW5       30.07R
RAPID CITY     CLEAR     40  36  86 CALM      29.99S
PIERRE         CLOUDY    52  49  89 W5        29.91F
WINNER         LGT RAIN  52  49  89 W6        29.95S
SIOUX FALLS    PTCLDY    52  48  86 N7        29.85R
OMAHA          FOG       64  63  96 CALM      29.76S VSB 1/4
GRAND ISLAND   TSTM      57  54  89 NW21G30   29.90R FOG
KANSAS CITY    CLOUDY    66  64  93 E7        29.75F
WICHITA        PTCLDY    69  60  73 S5        29.68F
HAYS           CLOUDY    61  48  63 NW22G28   29.81R
LIBERAL        PTCLDY    57  45  62 N21       29.82S
GOODLAND       CLOUDY    48  45  89 N17       29.98R
$$



USA.gov is the U.S. government's official web portal to all federal, state and local government web resources and services.